| time (UTC) | temp C | wind direction | speed KPH | gust KPH | rain 1hr cm | rain 24hr cm | rain mn cm | humidity % | barometer mb |
| 20260507000559 | 20 | 252 | 4.8 | 12.9 | 0.00 | 0.00 | 0.00 | 77 | 1009.3 |
| 20260507000057 | 20 | 202 | 4.8 | 16.1 | 0.00 | 0.00 | 0.00 | 77 | 1009.2 |
| 20260506235554 | 20 | 216 | 8.0 | 16.1 | 0.00 | 0.00 | 0.00 | 77 | 1008.8 |
| 20260506235057 | 20 | 218 | 8.0 | 16.1 | 0.00 | 0.00 | 0.00 | 76 | 1009.1 |
| 20260506234606 | 20 | 240 | 4.8 | 12.9 | 0.00 | 0.00 | 0.00 | 76 | 1009.3 |
| 20260506234056 | 20 | 194 | 4.8 | 11.3 | 0.00 | 0.00 | 0.00 | 76 | 1009.2 |
| 20260506233553 | 20 | 218 | 4.8 | 12.9 | 0.00 | 0.00 | 0.00 | 76 | 1009.2 |
| 20260506233057 | 20 | 205 | 4.8 | 16.1 | 0.00 | 0.00 | 0.00 | 75 | 1009.1 |
| 20260506232552 | 20 | 235 | 8.0 | 16.1 | 0.00 | 0.00 | 0.00 | 75 | 1009.0 |
| 20260506232055 | 20 | 244 | 8.0 | 16.1 | 0.00 | 0.00 | 0.00 | 75 | 1009.0 |
| 20260506231556 | 20 | 220 | 6.4 | 16.1 | 0.00 | 0.00 | 0.00 | 75 | 1009.1 |
| 20260506231054 | 20 | 227 | 4.8 | 16.1 | 0.00 | 0.00 | 0.00 | 75 | 1009.1 |
| 20260506230555 | 21 | 230 | 9.7 | 16.1 | 0.00 | 0.00 | 0.00 | 75 | 1009.1 |
| 20260506230104 | 21 | 246 | 8.0 | 16.1 | 0.00 | 0.00 | 0.00 | 75 | 1008.9 |
| 20260506225555 | 21 | 200 | 6.4 | 22.5 | 0.00 | 0.00 | 0.00 | 74 | 1009.0 |
| 20260506225055 | 21 | 252 | 8.0 | 22.5 | 0.00 | 0.00 | 0.00 | 74 | 1008.9 |
| 20260506224554 | 21 | 263 | 9.7 | 22.5 | 0.00 | 0.00 | 0.00 | 74 | 1008.9 |
| 20260506224055 | 21 | 244 | 3.2 | 8.0 | 0.00 | 0.00 | 0.00 | 75 | 1008.9 |
| 20260506223552 | 21 | 0 | 3.2 | 16.1 | 0.00 | 0.00 | 0.00 | 74 | 1008.8 |
| 20260506223057 | 21 | 239 | 3.2 | 20.9 | 0.00 | 0.00 | 0.00 | 74 | 1008.8 |
| 20260506222555 | 21 | 215 | 6.4 | 20.9 | 0.00 | 0.00 | 0.00 | 74 | 1008.8 |
| 20260506222055 | 21 | 249 | 9.7 | 24.1 | 0.00 | 0.00 | 0.00 | 74 | 1008.9 |
| 20260506221555 | 21 | 253 | 8.0 | 24.1 | 0.00 | 0.00 | 0.00 | 74 | 1009.0 |
| 20260506221052 | 21 | 248 | 11.3 | 25.7 | 0.00 | 0.00 | 0.00 | 73 | 1008.9 |
| 20260506220553 | 21 | 246 | 9.7 | 25.7 | 0.00 | 0.00 | 0.00 | 73 | 1008.9 |
| 20260506220100 | 21 | 306 | 9.7 | 27.4 | 0.00 | 0.00 | 0.00 | 72 | 1008.8 |
| 20260506215554 | 21 | 218 | 12.9 | 27.4 | 0.00 | 0.00 | 0.00 | 72 | 1008.8 |
| 20260506215052 | 21 | 246 | 11.3 | 24.1 | 0.00 | 0.00 | 0.00 | 72 | 1008.8 |
| 20260506214558 | 21 | 264 | 8.0 | 24.1 | 0.00 | 0.00 | 0.00 | 72 | 1008.8 |
| 20260506214051 | 21 | 244 | 12.9 | 25.7 | 0.00 | 0.00 | 0.00 | 72 | 1008.7 |
| 20260506213553 | 21 | 210 | 11.3 | 27.4 | 0.00 | 0.00 | 0.00 | 71 | 1008.5 |
| 20260506213053 | 21 | 217 | 9.7 | 27.4 | 0.00 | 0.00 | 0.00 | 72 | 1008.6 |
| 20260506212553 | 21 | 223 | 8.0 | 29.0 | 0.00 | 0.00 | 0.00 | 74 | 1008.5 |
| 20260506212053 | 21 | 254 | 16.1 | 29.0 | 0.00 | 0.00 | 0.00 | 73 | 1008.5 |
| 20260506211553 | 21 | 200 | 14.5 | 25.7 | 0.00 | 0.00 | 0.00 | 74 | 1008.5 |
| 20260506211053 | 21 | 233 | 9.7 | 24.1 | 0.00 | 0.00 | 0.00 | 74 | 1008.5 |
| 20260506210552 | 20 | 229 | 11.3 | 25.7 | 0.00 | 0.00 | 0.00 | 74 | 1008.5 |
| 20260506210057 | 20 | 265 | 11.3 | 27.4 | 0.00 | 0.00 | 0.00 | 74 | 1008.5 |
| 20260506205552 | 20 | 245 | 16.1 | 27.4 | 0.00 | 0.00 | 0.00 | 74 | 1008.3 |
| 20260506205052 | 20 | 193 | 17.7 | 27.4 | 0.00 | 0.00 | 0.00 | 74 | 1008.3 |
| 20260506204556 | 20 | 233 | 11.3 | 25.7 | 0.00 | 0.00 | 0.00 | 74 | 1008.3 |
| 20260506204053 | 20 | 240 | 14.5 | 24.1 | 0.00 | 0.00 | 0.00 | 74 | 1008.2 |
| 20260506203553 | 20 | 216 | 11.3 | 30.6 | 0.00 | 0.00 | 0.00 | 74 | 1008.2 |
| 20260506203055 | 20 | 251 | 12.9 | 32.2 | 0.00 | 0.00 | 0.00 | 74 | 1008.3 |
| 20260506202553 | 20 | 201 | 17.7 | 32.2 | 0.00 | 0.00 | 0.00 | 74 | 1008.4 |
| 20260506202050 | 20 | 248 | 16.1 | 30.6 | 0.00 | 0.00 | 0.00 | 74 | 1008.3 |
| 20260506201600 | 20 | 271 | 14.5 | 29.0 | 0.00 | 0.00 | 0.00 | 74 | 1008.4 |
| 20260506201050 | 20 | 211 | 12.9 | 29.0 | 0.00 | 0.00 | 0.00 | 75 | 1008.4 |
| 20260506200554 | 20 | 271 | 16.1 | 30.6 | 0.00 | 0.00 | 0.00 | 76 | 1008.6 |
| 20260506200054 | 20 | 234 | 16.1 | 30.6 | 0.00 | 0.00 | 0.00 | 77 | 1008.6 |
| 20260506195553 | 20 | 174 | 17.7 | 30.6 | 0.00 | 0.00 | 0.00 | 77 | 1008.8 |
| 20260506195053 | 19 | 240 | 14.5 | 29.0 | 0.00 | 0.00 | 0.00 | 77 | 1009.0 |
| 20260506194601 | 19 | 250 | 9.7 | 29.0 | 0.00 | 0.00 | 0.00 | 78 | 1008.9 |
| 20260506194053 | 19 | 257 | 17.7 | 29.0 | 0.00 | 0.00 | 0.00 | 77 | 1009.0 |
| 20260506193558 | 19 | 218 | 14.5 | 32.2 | 0.00 | 0.00 | 0.00 | 78 | 1009.2 |
| 20260506193108 | 19 | 228 | 9.7 | 38.6 | 0.00 | 0.00 | 0.00 | 78 | 1009.1 |
| 20260506192553 | 19 | 211 | 20.9 | 38.6 | 0.00 | 0.00 | 0.00 | 78 | 1008.9 |
| 20260506192053 | 19 | 288 | 11.3 | 25.7 | 0.00 | 0.00 | 0.00 | 78 | 1009.1 |
| 20260506191609 | 19 | 224 | 11.3 | 30.6 | 0.00 | 0.00 | 0.00 | 78 | 1009.2 |
| 20260506191054 | 19 | 208 | 11.3 | 30.6 | 0.00 | 0.00 | 0.00 | 78 | 1009.4 |
| 20260506190549 | 18 | 238 | 14.5 | 29.0 | 0.00 | 0.00 | 0.00 | 78 | 1009.2 |
| 20260506190055 | 18 | 266 | 11.3 | 25.7 | 0.00 | 0.00 | 0.00 | 79 | 1009.3 |
| 20260506185550 | 18 | 199 | 11.3 | 30.6 | 0.00 | 0.00 | 0.00 | 78 | 1009.4 |
| 20260506185053 | 18 | 208 | 16.1 | 30.6 | 0.00 | 0.00 | 0.00 | 78 | 1009.2 |
| 20260506184555 | 18 | 244 | 12.9 | 30.6 | 0.00 | 0.00 | 0.00 | 78 | 1009.5 |
| 20260506184050 | 19 | 232 | 12.9 | 27.4 | 0.00 | 0.00 | 0.00 | 78 | 1009.5 |
| 20260506183555 | 18 | 210 | 14.5 | 46.7 | 0.00 | 0.00 | 0.00 | 78 | 1009.6 |
| 20260506183054 | 18 | 230 | 17.7 | 46.7 | 0.00 | 0.00 | 0.00 | 77 | 1009.6 |
| 20260506182552 | 19 | 232 | 19.3 | 33.8 | 0.00 | 0.00 | 0.00 | 77 | 1009.6 |
| 20260506182052 | 19 | 181 | 16.1 | 35.4 | 0.00 | 0.00 | 0.00 | 76 | 1009.6 |
| 20260506181555 | 19 | 186 | 12.9 | 35.4 | 0.00 | 0.00 | 0.00 | 76 | 1009.8 |
| 20260506181053 | 19 | 202 | 8.0 | 29.0 | 0.00 | 0.00 | 0.00 | 76 | 1009.7 |
| 20260506180552 | 19 | 180 | 12.9 | 32.2 | 0.00 | 0.00 | 0.00 | 75 | 1009.7 |
| 20260506180058 | 19 | 225 | 14.5 | 35.4 | 0.00 | 0.00 | 0.00 | 75 | 1009.8 |
| 20260506175552 | 19 | 203 | 17.7 | 49.9 | 0.00 | 0.00 | 0.00 | 74 | 1009.9 |
| 20260506175052 | 20 | 186 | 16.1 | 49.9 | 0.00 | 0.00 | 0.00 | 73 | 1010.1 |
| 20260506174555 | 20 | 190 | 24.1 | 49.9 | 0.00 | 0.00 | 0.00 | 71 | 1009.9 |
| 20260506174052 | 20 | 198 | 17.7 | 37.0 | 0.00 | 0.00 | 0.00 | 71 | 1009.9 |
| 20260506173550 | 20 | 219 | 17.7 | 38.6 | 0.00 | 0.00 | 0.00 | 70 | 1010.0 |
| 20260506173124 | 20 | 173 | 11.3 | 38.6 | 0.00 | 0.00 | 0.00 | 70 | 1010.0 |
| 20260506172551 | 21 | 220 | 12.9 | 37.0 | 0.00 | 0.00 | 0.00 | 69 | 1010.1 |
| 20260506172055 | 21 | 205 | 14.5 | 40.2 | 0.00 | 0.00 | 0.00 | 68 | 1010.0 |
| 20260506171601 | 21 | 186 | 19.3 | 40.2 | 0.00 | 0.00 | 0.00 | 67 | 1009.9 |
| 20260506171053 | 21 | 221 | 11.3 | 27.4 | 0.00 | 0.00 | 0.00 | 70 | 1009.9 |
| 20260506170552 | 21 | 244 | 11.3 | 22.5 | 0.00 | 0.00 | 0.00 | 71 | 1010.0 |
| 20260506170053 | 21 | 203 | 11.3 | 32.2 | 0.00 | 0.00 | 0.00 | 71 | 1010.0 |
| 20260506165552 | 21 | 163 | 16.1 | 32.2 | 0.00 | 0.00 | 0.00 | 72 | 1010.2 |
| 20260506165053 | 21 | 261 | 14.5 | 29.0 | 0.00 | 0.00 | 0.00 | 72 | 1010.2 |
| 20260506164601 | 21 | 209 | 9.7 | 32.2 | 0.00 | 0.00 | 0.00 | 72 | 1010.4 |
| 20260506164053 | 21 | 203 | 12.9 | 32.2 | 0.00 | 0.00 | 0.00 | 68 | 1010.6 |
| 20260506163552 | 21 | 229 | 11.3 | 29.0 | 0.00 | 0.00 | 0.00 | 67 | 1010.6 |
| 20260506163105 | 21 | 211 | 16.1 | 32.2 | 0.00 | 0.00 | 0.00 | 67 | 1010.7 |
| 20260506162552 | 21 | 176 | 16.1 | 32.2 | 0.00 | 0.00 | 0.00 | 66 | 1010.9 |
| 20260506162053 | 21 | 214 | 17.7 | 32.2 | 0.00 | 0.00 | 0.00 | 66 | 1011.1 |
| 20260506161624 | 21 | 184 | 14.5 | 32.2 | 0.00 | 0.00 | 0.00 | 66 | 1011.2 |
| 20260506161052 | 21 | 283 | 17.7 | 30.6 | 0.00 | 0.00 | 0.00 | 66 | 1011.4 |
| 20260506160550 | 21 | 186 | 14.5 | 30.6 | 0.00 | 0.00 | 0.00 | 66 | 1011.1 |
| 20260506160056 | 21 | 228 | 16.1 | 37.0 | 0.00 | 0.00 | 0.00 | 66 | 1011.3 |
| 20260506155550 | 21 | 207 | 14.5 | 37.0 | 0.00 | 0.00 | 0.00 | 66 | 1011.2 |
| 20260506155151 | 21 | 220 | 19.3 | 37.0 | 0.00 | 0.00 | 0.00 | 65 | 1011.2 |
| 20260506154600 | 21 | 247 | 17.7 | 40.2 | 0.00 | 0.00 | 0.00 | 65 | 1011.2 |
| 20260506154053 | 21 | 184 | 12.9 | 40.2 | 0.00 | 0.00 | 0.00 | 65 | 1011.2 |
| 20260506153554 | 21 | 206 | 17.7 | 33.8 | 0.00 | 0.00 | 0.00 | 65 | 1011.3 |
| 20260506153058 | 21 | 229 | 12.9 | 33.8 | 0.00 | 0.00 | 0.00 | 64 | 1011.3 |
| 20260506152552 | 21 | 180 | 11.3 | 25.7 | 0.00 | 0.00 | 0.00 | 65 | 1011.3 |
| 20260506152053 | 21 | 223 | 9.7 | 20.9 | 0.00 | 0.00 | 0.00 | 65 | 1011.4 |
| 20260506151554 | 21 | 211 | 12.9 | 20.9 | 0.00 | 0.00 | 0.00 | 64 | 1011.2 |
| 20260506151053 | 21 | 252 | 11.3 | 24.1 | 0.00 | 0.00 | 0.00 | 64 | 1011.2 |
| 20260506150554 | 21 | 178 | 11.3 | 27.4 | 0.00 | 0.00 | 0.00 | 65 | 1011.2 |
| 20260506150056 | 21 | 200 | 14.5 | 27.4 | 0.00 | 0.00 | 0.00 | 65 | 1011.2 |
| 20260506145554 | 20 | 240 | 11.3 | 29.0 | 0.00 | 0.00 | 0.00 | 66 | 1011.1 |
| 20260506145052 | 20 | 190 | 12.9 | 30.6 | 0.00 | 0.00 | 0.00 | 65 | 1011.1 |
| 20260506144554 | 20 | 222 | 16.1 | 30.6 | 0.00 | 0.00 | 0.00 | 65 | 1011.2 |
| 20260506144053 | 20 | 207 | 14.5 | 24.1 | 0.00 | 0.00 | 0.00 | 65 | 1011.2 |
| 20260506143554 | 20 | 232 | 12.9 | 30.6 | 0.00 | 0.00 | 0.00 | 65 | 1011.2 |
| 20260506143056 | 21 | 200 | 12.9 | 32.2 | 0.00 | 0.00 | 0.00 | 64 | 1011.3 |
| 20260506142553 | 21 | 172 | 16.1 | 32.2 | 0.00 | 0.00 | 0.00 | 64 | 1011.2 |
| 20260506142057 | 21 | 218 | 16.1 | 35.4 | 0.00 | 0.00 | 0.00 | 64 | 1011.3 |
| 20260506141556 | 21 | 222 | 16.1 | 35.4 | 0.00 | 0.00 | 0.00 | 64 | 1011.3 |
| 20260506141053 | 21 | 213 | 14.5 | 32.2 | 0.00 | 0.00 | 0.00 | 65 | 1011.2 |
| 20260506140554 | 21 | 222 | 11.3 | 32.2 | 0.00 | 0.00 | 0.00 | 65 | 1011.2 |
| 20260506140053 | 20 | 226 | 16.1 | 27.4 | 0.00 | 0.00 | 0.00 | 65 | 1011.2 |
| 20260506135553 | 20 | 189 | 11.3 | 40.2 | 0.00 | 0.00 | 0.00 | 65 | 1011.2 |
| 20260506135053 | 21 | 208 | 17.7 | 40.2 | 0.00 | 0.00 | 0.00 | 64 | 1011.4 |
| 20260506134553 | 21 | 211 | 14.5 | 38.6 | 0.00 | 0.00 | 0.00 | 64 | 1011.2 |
| 20260506134054 | 21 | 203 | 12.9 | 38.6 | 0.00 | 0.00 | 0.00 | 63 | 1011.3 |
| 20260506133554 | 21 | 211 | 14.5 | 35.4 | 0.00 | 0.00 | 0.00 | 63 | 1011.1 |
| 20260506133057 | 21 | 229 | 19.3 | 33.8 | 0.00 | 0.00 | 0.00 | 63 | 1011.4 |
| 20260506132554 | 21 | 178 | 12.9 | 33.8 | 0.00 | 0.00 | 0.00 | 64 | 1011.4 |
| 20260506132054 | 21 | 225 | 17.7 | 40.2 | 0.00 | 0.00 | 0.00 | 63 | 1011.5 |
| 20260506131601 | 21 | 225 | 17.7 | 40.2 | 0.00 | 0.00 | 0.00 | 63 | 1011.5 |
| 20260506131054 | 21 | 223 | 12.9 | 38.6 | 0.00 | 0.00 | 0.00 | 64 | 1011.7 |
| 20260506130554 | 21 | 178 | 19.3 | 38.6 | 0.00 | 0.00 | 0.00 | 65 | 1011.6 |
| 20260506130117 | 21 | 150 | 19.3 | 35.4 | 0.00 | 0.00 | 0.00 | 65 | 1011.8 |
| 20260506125553 | 21 | 246 | 12.9 | 40.2 | 0.00 | 0.00 | 0.00 | 65 | 1011.9 |
| 20260506125053 | 20 | 182 | 16.1 | 40.2 | 0.00 | 0.00 | 0.00 | 66 | 1011.7 |
| 20260506124600 | 20 | 188 | 16.1 | 37.0 | 0.00 | 0.00 | 0.00 | 66 | 1011.8 |
| 20260506124053 | 20 | 201 | 16.1 | 33.8 | 0.00 | 0.00 | 0.00 | 66 | 1011.8 |
| 20260506123553 | 20 | 215 | 12.9 | 40.2 | 0.00 | 0.00 | 0.00 | 68 | 1011.8 |
| 20260506123054 | 20 | 222 | 16.1 | 40.2 | 0.00 | 0.00 | 0.00 | 68 | 1011.9 |
| 20260506122554 | 20 | 180 | 12.9 | 33.8 | 0.00 | 0.00 | 0.00 | 70 | 1011.7 |
| 20260506122053 | 19 | 215 | 12.9 | 40.2 | 0.00 | 0.00 | 0.00 | 71 | 1011.6 |
| 20260506121553 | 19 | 215 | 14.5 | 40.2 | 0.00 | 0.00 | 0.00 | 71 | 1011.7 |
| 20260506121052 | 18 | 200 | 12.9 | 38.6 | 0.00 | 0.00 | 0.00 | 71 | 1011.7 |
| 20260506120552 | 19 | 244 | 17.7 | 38.6 | 0.00 | 0.00 | 0.00 | 72 | 1011.7 |
| 20260506120105 | 18 | 244 | 11.3 | 27.4 | 0.00 | 0.00 | 0.00 | 73 | 1011.7 |
| 20260506115553 | 18 | 207 | 12.9 | 27.4 | 0.00 | 0.00 | 0.00 | 74 | 1011.7 |
| 20260506115051 | 18 | 188 | 11.3 | 29.0 | 0.00 | 0.00 | 0.00 | 75 | 1011.8 |
| 20260506114553 | 18 | 207 | 16.1 | 29.0 | 0.00 | 0.00 | 0.00 | 74 | 1011.7 |
| 20260506114055 | 18 | 201 | 14.5 | 29.0 | 0.00 | 0.00 | 0.00 | 75 | 1011.7 |
| 20260506113555 | 18 | 182 | 12.9 | 27.4 | 0.00 | 0.00 | 0.00 | 75 | 1011.6 |
| 20260506113058 | 18 | 197 | 17.7 | 27.4 | 0.00 | 0.00 | 0.00 | 76 | 1011.6 |
| 20260506112555 | 17 | 202 | 11.3 | 25.7 | 0.00 | 0.00 | 0.00 | 76 | 1011.8 |
| 20260506112055 | 17 | 217 | 11.3 | 25.7 | 0.00 | 0.00 | 0.00 | 77 | 1011.8 |
| 20260506111554 | 17 | 166 | 11.3 | 25.7 | 0.00 | 0.00 | 0.00 | 77 | 1012.0 |
| 20260506111054 | 17 | 211 | 9.7 | 24.1 | 0.00 | 0.00 | 0.00 | 78 | 1011.8 |
| 20260506110552 | 17 | 179 | 12.9 | 25.7 | 0.00 | 0.00 | 0.00 | 78 | 1011.8 |
| 20260506105552 | 17 | 194 | 14.5 | 25.7 | 0.00 | 0.00 | 0.00 | 79 | 1011.7 |
| 20260506105051 | 17 | 171 | 11.3 | 20.9 | 0.00 | 0.00 | 0.00 | 79 | 1011.9 |
| 20260506104556 | 16 | 180 | 9.7 | 22.5 | 0.00 | 0.00 | 0.00 | 80 | 1011.8 |
| 20260506104052 | 16 | 183 | 8.0 | 22.5 | 0.00 | 0.00 | 0.00 | 80 | 1011.8 |
| 20260506103552 | 16 | 176 | 11.3 | 30.6 | 0.00 | 0.00 | 0.00 | 80 | 1011.8 |
| 20260506103058 | 16 | 218 | 16.1 | 30.6 | 0.00 | 0.00 | 0.00 | 80 | 1011.8 |
| 20260506102554 | 16 | 190 | 9.7 | 27.4 | 0.00 | 0.00 | 0.00 | 80 | 1011.8 |
| 20260506102054 | 16 | 228 | 11.3 | 27.4 | 0.00 | 0.00 | 0.00 | 80 | 1011.7 |
| 20260506101608 | 16 | 180 | 9.7 | 19.3 | 0.00 | 0.00 | 0.00 | 80 | 1011.7 |
| 20260506101053 | 16 | 165 | 9.7 | 19.3 | 0.00 | 0.00 | 0.00 | 81 | 1011.5 |
| 20260506100553 | 16 | 211 | 11.3 | 22.5 | 0.00 | 0.00 | 0.00 | 81 | 1011.4 |
| 20260506100114 | 16 | 196 | 11.3 | 22.5 | 0.00 | 0.00 | 0.00 | 81 | 1011.5 |
| 20260506095558 | 16 | 230 | 11.3 | 20.9 | 0.00 | 0.00 | 0.00 | 81 | 1011.5 |
| 20260506095054 | 16 | 194 | 8.0 | 22.5 | 0.00 | 0.00 | 0.00 | 81 | 1011.4 |
| 20260506094555 | 16 | 210 | 11.3 | 22.5 | 0.00 | 0.00 | 0.00 | 81 | 1011.3 |
| 20260506094053 | 16 | 189 | 9.7 | 19.3 | 0.00 | 0.00 | 0.00 | 81 | 1011.4 |
| 20260506093553 | 16 | 175 | 11.3 | 22.5 | 0.00 | 0.00 | 0.00 | 81 | 1011.4 |
| 20260506093057 | 16 | 184 | 11.3 | 22.5 | 0.00 | 0.00 | 0.00 | 81 | 1011.4 |
| 20260506092553 | 16 | 197 | 8.0 | 20.9 | 0.00 | 0.00 | 0.00 | 81 | 1011.4 |
| 20260506092108 | 16 | 207 | 8.0 | 19.3 | 0.00 | 0.00 | 0.00 | 81 | 1011.5 |
| 20260506091554 | 17 | 186 | 8.0 | 20.9 | 0.00 | 0.00 | 0.00 | 81 | 1011.5 |
| 20260506091053 | 17 | 188 | 9.7 | 20.9 | 0.00 | 0.00 | 0.00 | 81 | 1011.7 |
| 20260506090553 | 17 | 220 | 8.0 | 22.5 | 0.00 | 0.00 | 0.00 | 81 | 1011.7 |
| 20260506090055 | 17 | 200 | 11.3 | 25.7 | 0.00 | 0.00 | 0.00 | 81 | 1011.7 |
| 20260506085553 | 17 | 183 | 11.3 | 25.7 | 0.00 | 0.00 | 0.00 | 81 | 1011.7 |
| 20260506085054 | 17 | 175 | 9.7 | 22.5 | 0.00 | 0.00 | 0.00 | 81 | 1011.6 |
| 20260506084619 | 17 | 192 | 11.3 | 20.9 | 0.00 | 0.00 | 0.00 | 81 | 1011.7 |
| 20260506084054 | 17 | 186 | 11.3 | 27.4 | 0.00 | 0.00 | 0.00 | 81 | 1011.7 |
| 20260506083554 | 17 | 218 | 8.0 | 27.4 | 0.00 | 0.00 | 0.00 | 80 | 1011.8 |
| 20260506083054 | 17 | 200 | 11.3 | 24.1 | 0.00 | 0.00 | 0.00 | 80 | 1011.8 |
| 20260506082553 | 17 | 194 | 12.9 | 25.7 | 0.00 | 0.00 | 0.00 | 80 | 1011.9 |
| 20260506082053 | 17 | 216 | 11.3 | 25.7 | 0.00 | 0.00 | 0.00 | 80 | 1011.7 |
| 20260506081557 | 17 | 209 | 11.3 | 24.1 | 0.00 | 0.00 | 0.00 | 80 | 1011.8 |
| 20260506081052 | 17 | 207 | 9.7 | 27.4 | 0.00 | 0.00 | 0.00 | 80 | 1011.7 |
| 20260506080555 | 17 | 191 | 11.3 | 27.4 | 0.00 | 0.00 | 0.00 | 80 | 1011.8 |
| 20260506073055 | 17 | 195 | 11.3 | 27.4 | 0.00 | 0.00 | 0.00 | 80 | 1011.8 |
| 20260506072553 | 17 | 178 | 9.7 | 19.3 | 0.00 | 0.00 | 0.00 | 80 | 1011.8 |
| 20260506072052 | 17 | 187 | 6.4 | 20.9 | 0.00 | 0.00 | 0.00 | 79 | 1011.9 |
| 20260506071600 | 17 | 156 | 11.3 | 20.9 | 0.00 | 0.00 | 0.00 | 79 | 1012.0 |
| 20260506071055 | 17 | 230 | 8.0 | 19.3 | 0.00 | 0.00 | 0.00 | 79 | 1012.0 |
| 20260506070555 | 17 | 178 | 8.0 | 19.3 | 0.00 | 0.00 | 0.00 | 79 | 1012.1 |
| 20260506062056 | 18 | 173 | 11.3 | 20.9 | 0.00 | 0.00 | 0.00 | 78 | 1012.1 |
| 20260506061600 | 18 | 182 | 11.3 | 25.7 | 0.00 | 0.00 | 0.00 | 77 | 1012.1 |
| 20260506061415 | 18 | 225 | 11.3 | 25.7 | 0.00 | 0.00 | 0.00 | 77 | 1012.1 |
| 20260506060552 | 18 | 192 | 11.3 | 22.5 | 0.00 | 0.00 | 0.00 | 77 | 1012.2 |
| 20260506051055 | 18 | 234 | 9.7 | 20.9 | 0.00 | 0.00 | 0.00 | 75 | 1012.4 |
| 20260506050553 | 18 | 207 | 9.7 | 20.9 | 0.00 | 0.00 | 0.00 | 75 | 1012.4 |
| 20260506045052 | 18 | 229 | 9.7 | 27.4 | 0.00 | 0.00 | 0.00 | 74 | 1012.4 |
| 20260506044700 | 18 | 207 | 11.3 | 27.4 | 0.00 | 0.00 | 0.00 | 74 | 1012.5 |
| 20260506044055 | 18 | 225 | 8.0 | 27.4 | 0.00 | 0.00 | 0.00 | 74 | 1012.5 |
| 20260506043556 | 19 | 189 | 9.7 | 27.4 | 0.00 | 0.00 | 0.00 | 74 | 1012.5 |
| 20260506043057 | 19 | 200 | 9.7 | 25.7 | 0.00 | 0.00 | 0.00 | 73 | 1012.5 |
| 20260506042553 | 19 | 194 | 9.7 | 25.7 | 0.00 | 0.00 | 0.00 | 73 | 1012.5 |
| 20260506042054 | 19 | 186 | 11.3 | 25.7 | 0.00 | 0.00 | 0.00 | 73 | 1012.5 |
| 20260506041602 | 19 | 238 | 9.7 | 24.1 | 0.00 | 0.00 | 0.00 | 73 | 1012.4 |
| 20260506041052 | 19 | 216 | 11.3 | 27.4 | 0.00 | 0.00 | 0.00 | 73 | 1012.4 |
| 20260506040559 | 19 | 193 | 12.9 | 27.4 | 0.00 | 0.00 | 0.00 | 73 | 1012.4 |
| 20260506040057 | 19 | 229 | 12.9 | 25.7 | 0.00 | 0.00 | 0.00 | 73 | 1012.5 |
| 20260506035552 | 19 | 169 | 14.5 | 27.4 | 0.00 | 0.00 | 0.00 | 73 | 1012.3 |
| 20260506035055 | 18 | 180 | 11.3 | 30.6 | 0.00 | 0.00 | 0.00 | 73 | 1012.4 |
| 20260506034624 | 18 | 218 | 14.5 | 30.6 | 0.00 | 0.00 | 0.00 | 73 | 1012.4 |
| 20260506034052 | 18 | 218 | 12.9 | 25.7 | 0.00 | 0.00 | 0.00 | 74 | 1012.5 |
| 20260506033552 | 18 | 221 | 8.0 | 25.7 | 0.00 | 0.00 | 0.00 | 74 | 1012.5 |
| 20260506033058 | 18 | 216 | 9.7 | 24.1 | 0.00 | 0.00 | 0.00 | 74 | 1012.6 |
| 20260506032553 | 18 | 190 | 8.0 | 20.9 | 0.00 | 0.00 | 0.00 | 74 | 1012.6 |
| 20260506032053 | 18 | 209 | 9.7 | 16.1 | 0.00 | 0.00 | 0.00 | 74 | 1012.6 |
| 20260506031553 | 18 | 193 | 4.8 | 14.5 | 0.00 | 0.00 | 0.00 | 74 | 1012.6 |
| 20260506031056 | 18 | 176 | 6.4 | 16.1 | 0.00 | 0.00 | 0.00 | 74 | 1012.6 |
| 20260506030553 | 18 | 191 | 8.0 | 16.1 | 0.00 | 0.00 | 0.00 | 73 | 1012.8 |
| 20260506030053 | 18 | 165 | 4.8 | 14.5 | 0.00 | 0.00 | 0.00 | 73 | 1012.7 |
| 20260506025553 | 18 | 163 | 6.4 | 14.5 | 0.00 | 0.00 | 0.00 | 73 | 1012.7 |
| 20260506025054 | 18 | 187 | 6.4 | 12.9 | 0.00 | 0.00 | 0.00 | 72 | 1012.8 |
| 20260506024556 | 18 | 173 | 6.4 | 14.5 | 0.00 | 0.00 | 0.00 | 72 | 1012.8 |
| 20260506024055 | 18 | 187 | 8.0 | 14.5 | 0.00 | 0.00 | 0.00 | 72 | 1012.7 |
| 20260506023552 | 18 | 184 | 6.4 | 14.5 | 0.00 | 0.00 | 0.00 | 71 | 1012.7 |
| 20260506023110 | 18 | 172 | 8.0 | 16.1 | 0.00 | 0.00 | 0.00 | 71 | 1012.7 |
| 20260506022553 | 18 | 192 | 6.4 | 17.7 | 0.00 | 0.00 | 0.00 | 70 | 1012.8 |
| 20260506022053 | 18 | 173 | 6.4 | 19.3 | 0.00 | 0.00 | 0.00 | 70 | 1012.8 |
| 20260506021554 | 18 | 163 | 8.0 | 19.3 | 0.00 | 0.00 | 0.00 | 69 | 1012.8 |
| 20260506021053 | 19 | 195 | 9.7 | 20.9 | 0.00 | 0.00 | 0.00 | 69 | 1012.9 |
| 20260506020552 | 19 | 172 | 9.7 | 20.9 | 0.00 | 0.00 | 0.00 | 68 | 1012.8 |
| 20260506020052 | 19 | 155 | 9.7 | 20.9 | 0.00 | 0.00 | 0.00 | 68 | 1012.8 |
| 20260506015553 | 19 | 179 | 8.0 | 20.9 | 0.00 | 0.00 | 0.00 | 67 | 1012.8 |
| 20260506015053 | 19 | 173 | 8.0 | 19.3 | 0.00 | 0.00 | 0.00 | 67 | 1012.8 |
| 20260506014553 | 19 | 230 | 8.0 | 22.5 | 0.00 | 0.00 | 0.00 | 66 | 1012.7 |
| 20260506014053 | 19 | 169 | 9.7 | 22.5 | 0.00 | 0.00 | 0.00 | 66 | 1012.7 |
| 20260506013551 | 20 | 156 | 11.3 | 20.9 | 0.00 | 0.00 | 0.00 | 65 | 1012.7 |
| 20260506013055 | 20 | 148 | 9.7 | 20.9 | 0.00 | 0.00 | 0.00 | 65 | 1012.7 |
| 20260506012552 | 20 | 173 | 9.7 | 29.0 | 0.00 | 0.00 | 0.00 | 64 | 1012.5 |
| 20260506012053 | 20 | 163 | 9.7 | 29.0 | 0.00 | 0.00 | 0.00 | 64 | 1012.5 |
| 20260506011614 | 20 | 201 | 11.3 | 22.5 | 0.00 | 0.00 | 0.00 | 63 | 1012.5 |
| 20260506011052 | 20 | 157 | 9.7 | 24.1 | 0.00 | 0.00 | 0.00 | 63 | 1012.4 |
| 20260506010555 | 20 | 166 | 11.3 | 24.1 | 0.00 | 0.00 | 0.00 | 62 | 1012.4 |
| 20260506005555 | 20 | 190 | 11.3 | 20.9 | 0.00 | 0.00 | 0.00 | 62 | 1012.3 |
| 20260506005054 | 20 | 209 | 9.7 | 22.5 | 0.00 | 0.00 | 0.00 | 61 | 1012.2 |
| 20260506004624 | 20 | 167 | 11.3 | 22.5 | 0.00 | 0.00 | 0.00 | 61 | 1012.0 |
| 20260506004055 | 20 | 158 | 9.7 | 20.9 | 0.00 | 0.00 | 0.00 | 61 | 1011.9 |
| 20260506003553 | 21 | 152 | 8.0 | 19.3 | 0.00 | 0.00 | 0.00 | 61 | 1011.8 |
| 20260506003109 | 21 | 163 | 8.0 | 19.3 | 0.00 | 0.00 | 0.00 | 61 | 1011.8 |
| 20260506002551 | 21 | 201 | 9.7 | 16.1 | 0.00 | 0.00 | 0.00 | 60 | 1011.7 |
| 20260506002054 | 21 | 189 | 6.4 | 14.5 | 0.00 | 0.00 | 0.00 | 60 | 1011.8 |
| 20260506001558 | 21 | 187 | 8.0 | 17.7 | 0.00 | 0.00 | 0.00 | 59 | 1011.7 |
| 20260506001053 | 21 | 179 | 6.4 | 17.7 | 0.00 | 0.00 | 0.00 | 59 | 1011.7 |